Weather Roundup
Issued by NWS Chicago, IL

Home | Current Version | Previous Version | Text Only | Print | Product List | Glossary Off
Versions: 1 2 3 4 5 6 7 8 9 10 11 12 13 14 15 16 17 18 19 20 21 22 23 24 25 26 27 28 29 30 31 32 33 34 35 36 37 38 39 40 41 42 43 44 45 46 47 48 49 50

000
NZUS59 KLOT 260558
HRRLOT

CHICAGO AREA WEATHER ROUNDUP
NATIONAL WEATHER SERVICE CHICAGO/ROMEOVILLE IL
1200 AM CST FRI DEC 26 2014

NOTE: "FAIR" INDICATES FEW OR NO CLOUDS BELOW 12,000 FEET WITH NO
SIGNIFICANT WEATHER AND/OR OBSTRUCTIONS TO VISIBILITY.

* THESE STATIONS ARE NOT UNDER NWS QUALITY CONTROL. THEY ALSO MAY NOT
  REPORT WEATHER SUCH AS PRECIPITATION OR FOG.

ILZ005-006-012>014-019>023-260700-
NORTHEAST ILLINOIS

CITY           SKY/WX    TMP DP  RH WIND       PRES   REMARKS
OHARE          CLOUDY    38  32  79 S15       29.99F
6HR MIN TEMP:  38; 6HR MAX TEMP:  41;

MIDWAY         NOT AVBL
AURORA         PTCLDY    37  32  82 S10       29.99F
6HR MIN TEMP:  36; 6HR MAX TEMP:  41;

WAUKEGAN       NOT AVBL
DUPAGE AIRPORT MOCLDY    38  33  82 S14       29.99F
6HR MIN TEMP:  37; 6HR MAX TEMP:  41;

WHEELING       CLOUDY    39  32  76 S13       30.02F
6HR MIN TEMP:  39; 6HR MAX TEMP:  41;

NORTHERLY IS     N/A     41  32  70 SW17        N/A
$$

WIZ051-052-058>065-066-070>072-260700-
SOUTHEAST WISCONSIN

CITY           SKY/WX    TMP DP  RH WIND       PRES   REMARKS
MILWAUKEE      CLOUDY    40  33  76 S12       29.97F
6HR MIN TEMP:  39; 6HR MAX TEMP:  41;

$$

INZ001>003-010>013-019-020-260700-
NORTHWEST INDIANA

CITY           SKY/WX    TMP DP  RH WIND       PRES   REMARKS
GARY*          NOT AVBL
MICHIGAN CITY* NOT AVBL
RENSSELAER*    NOT AVBL
$$

LMZ740>746-260700-
SOUTHERN LAKE MICHIGAN

STATION/POSITION TIME  SKY/WX   TEMP WIND        PRES    VSBY
                                AIR  DIR/SP/G
                 (UTC)          (F)  (DEG/KT/KT) (MB)    (MI)
HARRISON CRIB    0500            40  190/ 23/ 27   N/A
BURNHAM HARBOR   0500            41  190/ 18/ 19   N/A
CALUMET HARBOR   0500            39  170/ 10/ 16 1015.7R
BURNS HARBOR     NOT AVBL
MICHIGAN CITY    0500            38  160/ 14/ 19   N/A
$$

ABBREVIATIONS USED IN REMARKS
   TC - TEMPERATURE IN CELSIUS
  WCI - WIND CHILL INDEX
   HX - HEAT INDEX
  VSB - VISIBILITY
$$


USA.gov is the U.S. government's official web portal to all federal, state and local government web resources and services.